Regional Weather Roundup
Issued by NWS

Home | Current Version | Previous Version | Graphics & Text | Print | Product List | Glossary On
Versions: 1 2 3 4 5 6 7 8 9 10 11 12 13 14 15 16 17 18 19 20 21 22 23 24 25 26 27 28 29 30 31 32 33 34 35 36 37 38 39 40 41 42 43 44 45 46 47 48 49 50
602
ASUS45 KSLC 191610
RWRUT

UTAH REGIONAL WEATHER ROUNDUP
NATIONAL WEATHER SERVICE SALT LAKE CITY UT
900 AM MST SUN FEB 19 2017

UTZ001>011-023>025-191700-

NORTHERN UTAH

CITY           SKY/WX    TMP DP  RH WIND       PRES   REMARKS
BRIGHAM CITY     N/A     46  37  71 S12       29.67S
HILL AFB       CLOUDY    41  37  87 SE8       29.67S
LOGAN          CLOUDY    42  37  82 N5        29.66R
OGDEN          CLOUDY    42  38  85 S10       29.66S
SALT LAKE CITY LGT RAIN  44  41  89 E10       29.66F
TOOELE VALLEY  LGT RAIN  45  43  93 S12       29.66S
WENDOVER       MOSUNNY   39  36  87 W3        29.67R
HEBER CITY     CLOUDY    45  34  65 S5        29.67R
WEST JORDAN    CLOUDY    45  45 100 CALM      29.69S

$$

UTZ011>015-024>027-191700-

CENTRAL/NORTHEAST UTAH

CITY           SKY/WX    TMP DP  RH WIND       PRES   REMARKS
PROVO AIRPORT  CLOUDY    46  37  71 E3        29.70R
MOAB/CANYONLAN CLOUDY    40  40 100 CALM      29.72R
DELTA          MOSUNNY   45  36  70 S12       29.70R
PRICE          CLOUDY    36  36 100 CALM      29.72R
RICHFIELD      MOSUNNY   43  37  81 CALM      29.71S
ROOSEVELT      CLOUDY    37  36  93 E3        29.74S
VERNAL         FOG       33  33 100 E5        29.74R VSB 1/4 WCI  29

$$

UTZ013>016-019>022-027-191700-

SOUTHERN UTAH

CITY           SKY/WX    TMP DP  RH WIND       PRES   REMARKS
BRYCE CANYON   FOG       33  31  92 SE10      29.76R VSB 1/4 WCI  25
CEDAR CITY     CLOUDY    39  37  92 SW13G20   29.74R WCI  31
MILFORD        PTSUNNY   42  38  85 S15       29.72R
ST GEORGE      CLOUDY    48  46  93 SW5       29.80R
HANKSVILLE     CLOUDY    37  37 100 CALM      29.76R
KANAB          CLOUDY    41  39  93 SW10      29.85R
BLANDING       CLOUDY    37  37 100 S9        29.87R WCI  30

$$

REGIONAL REPORTS     COLORADO/ARIZONA

CITY           SKY/WX    TMP DP  RH WIND       PRES   REMARKS
CRAIG, CO      CLOUDY    35  29  78 S3        29.75S
GRAND JUNCTION CLOUDY    39  36  89 E5        29.73S
RIFLE, CO      CLOUDY    34  32  92 CALM      29.74F
MONTROSE, CO   CLOUDY    39  33  79 CALM      29.76S
CORTEZ, CO     RAIN      37  36  96 SW13      29.82R FOG     WCI  29
COLORADO CITY  LGT RAIN  43  37  81 CALM      29.84R
PAGE, AZ       LGT RAIN  41  34  76 S9        29.79R
GRAND CANYON   SNOW      32  32 100 SW10      29.84R VSB 1/2 WCI  24
KINGMAN, AZ    CLOUDY    45  41  86 W5        29.84R
FLAGSTAFF, AZ  LGT SNOW  30  29  96 SW12      29.85R VSB 3/4 WCI  20

$$

REGIONAL REPORTS    NEVADA/IDAHO/WYOMING

CITY           SKY/WX    TMP DP  RH WIND       PRES   REMARKS
LAS VEGAS, NV  MOSUNNY   52  44  74 S8        29.77R
ELY, NY        CLOUDY    37  34  89 SE5       29.74R WCI  33
ELKO, NV       CLOUDY    38  33  82 W6        29.70R WCI  33
POCATELLO, ID  LGT RAIN  37  35  92 SW10      29.66S WCI  30
BURLEY, ID     CLOUDY    43  35  73 SW8       29.63R
FORT BRIDGER,    N/A     32  31  96 W3        29.69R
EVANSTON, WY   SNOW      33  30  88 W18       29.69R VSB 1/2 WCI  22
ROCK SPRINGS,  CLOUDY    41  29  62 SW9       29.64S
KEMMERER, WY   LGT SNOW  32  32 100 W13       29.67S VSB 3/4 WCI  22

$$




USA.gov is the U.S. government's official web portal to all federal, state and local government web resources and services.